This is the latest recevied weather packets stored in our database for station/object SP8EBC-11. If no packets are shown the sender has not sent any weather packets the latest 1 day(s).
| Time | Temp. | Humidity | Pressure | Rain* | Wind** | Luminosity | Snow |
|---|---|---|---|---|---|---|---|
| 1778018188 | 11.67° C | 69% | 991.5 hPa | - | 3.58 m/s, 42° | - | - |
| 1778018067 | 11.67° C | 69% | 991.5 hPa | - | 3.13 m/s, 43° | - | - |
| 1778017947 | 11.67° C | 69% | 991.4 hPa | - | 3.58 m/s, 43° | - | - |
| 1778017827 | 11.67° C | 69% | 991.5 hPa | - | 4.02 m/s, 39° | - | - |
| 1778017707 | 11.67° C | 69% | 991.5 hPa | - | 4.02 m/s, 43° | - | - |
| 1778017588 | 11.67° C | 69% | 991.5 hPa | - | 3.58 m/s, 45° | - | - |
| 1778017467 | 11.67° C | 69% | 991.5 hPa | - | 3.58 m/s, 47° | - | - |
| 1778017347 | 11.67° C | 69% | 991.4 hPa | - | 3.13 m/s, 48° | - | - |
| 1778017227 | 11.67° C | 69% | 991.4 hPa | - | 3.58 m/s, 44° | - | - |
| 1778017107 | 11.67° C | 69% | 991.4 hPa | - | 4.47 m/s, 46° | - | - |
| 1778016987 | 12.22° C | 69% | 991.4 hPa | - | 3.58 m/s, 39° | - | - |
| 1778016867 | 12.22° C | 69% | 991.4 hPa | - | 4.02 m/s, 45° | - | - |
| 1778016747 | 12.22° C | 69% | 991.4 hPa | - | 4.47 m/s, 47° | - | - |
| 1778016627 | 12.22° C | 69% | 991.4 hPa | - | 4.02 m/s, 50° | - | - |
| 1778016507 | 12.22° C | 69% | 991.4 hPa | - | 3.58 m/s, 48° | - | - |
| 1778016386 | 12.22° C | 69% | 991.4 hPa | - | 3.58 m/s, 46° | - | - |
| 1778016266 | 12.22° C | 69% | 991.4 hPa | - | 4.02 m/s, 48° | - | - |
| 1778016146 | 12.22° C | 69% | 991.4 hPa | - | 4.47 m/s, 47° | - | - |
| 1778016026 | 12.22° C | 69% | 991.4 hPa | - | 5.81 m/s, 47° | - | - |
| 1778015906 | 12.22° C | 69% | 991.4 hPa | - | 5.36 m/s, 52° | - | - |
| 1778015786 | 12.22° C | 69% | 991.5 hPa | - | 4.47 m/s, 46° | - | - |
| 1778015666 | 12.22° C | 70% | 991.5 hPa | - | 4.92 m/s, 41° | - | - |
| 1778015546 | 12.22° C | 70% | 991.6 hPa | - | 4.92 m/s, 42° | - | - |
| 1778015426 | 12.22° C | 70% | 991.6 hPa | - | 4.02 m/s, 42° | - | - |
| 1778015306 | 12.22° C | 70% | 991.6 hPa | - | 4.92 m/s, 38° | - | - |
* Rain since midnight (hover to see other rain measurements)
** Current wind speed in m/s (hover to see current wind gust speed)